| time (UTC) | temp F | wind direction | speed MPH | gust MPH | rain 1hr in | rain 24hr in | rain mn in | humidity % | barometer mb |
| 20260502140108 | 69 | 229 | 2.0 | 6.0 | 0.00 | 0.00 | 0.00 | 51 | 1013.2 |
| 20260502130607 | 69 | 272 | 2.0 | 9.0 | 0.00 | 0.00 | 0.00 | 52 | 1013.7 |
| 20260502130107 | 68 | 220 | 3.0 | 9.0 | 0.00 | 0.00 | 0.00 | 52 | 1013.8 |
| 20260502123607 | 68 | 215 | 6.0 | 10.0 | 0.00 | 0.00 | 0.00 | 54 | 1014.2 |
| 20260502123107 | 68 | 281 | 5.0 | 12.0 | 0.00 | 0.00 | 0.00 | 53 | 1014.2 |
| 20260502121608 | 68 | 224 | 2.0 | 17.0 | 0.00 | 0.00 | 0.00 | 54 | 1014.6 |
| 20260502121107 | 68 | 212 | 6.0 | 17.0 | 0.00 | 0.00 | 0.00 | 54 | 1014.6 |
| 20260502120607 | 67 | 217 | 4.0 | 17.0 | 0.00 | 0.00 | 0.00 | 55 | 1014.7 |
| 20260502120107 | 67 | 220 | 2.0 | 12.0 | 0.00 | 0.00 | 0.00 | 56 | 1014.7 |
| 20260502114607 | 66 | 229 | 3.0 | 12.0 | 0.00 | 0.00 | 0.00 | 57 | 1014.5 |
| 20260502114107 | 66 | 223 | 4.0 | 10.0 | 0.00 | 0.00 | 0.00 | 58 | 1014.5 |
| 20260502113107 | 66 | 277 | 2.0 | 8.0 | 0.00 | 0.00 | 0.00 | 59 | 1014.6 |
| 20260502111608 | 65 | 261 | 2.0 | 14.0 | 0.00 | 0.00 | 0.00 | 60 | 1014.6 |
| 20260502111107 | 65 | 253 | 2.0 | 14.0 | 0.00 | 0.00 | 0.00 | 60 | 1014.6 |
| 20260502110607 | 65 | 282 | 4.0 | 12.0 | 0.00 | 0.00 | 0.00 | 60 | 1014.7 |
| 20260502110107 | 64 | 251 | 3.0 | 12.0 | 0.00 | 0.00 | 0.00 | 61 | 1014.7 |
| 20260502104608 | 64 | 261 | 5.0 | 12.0 | 0.00 | 0.00 | 0.00 | 62 | 1014.9 |
| 20260502103607 | 64 | 280 | 5.0 | 12.0 | 0.00 | 0.00 | 0.00 | 63 | 1015.0 |
| 20260502101609 | 62 | 276 | 3.0 | 10.0 | 0.00 | 0.00 | 0.00 | 64 | 1015.0 |
| 20260502100607 | 62 | 224 | 5.0 | 12.0 | 0.00 | 0.00 | 0.00 | 64 | 1015.1 |
| 20260502100108 | 63 | 283 | 6.0 | 12.0 | 0.00 | 0.00 | 0.00 | 64 | 1015.2 |
| 20260502090607 | 61 | 269 | 5.0 | 13.0 | 0.00 | 0.00 | 0.00 | 66 | 1015.5 |
| 20260502090107 | 61 | 267 | 5.0 | 12.0 | 0.00 | 0.00 | 0.00 | 66 | 1015.4 |
| 20260502080108 | 59 | 279 | 3.0 | 10.0 | 0.00 | 0.00 | 0.00 | 68 | 1015.3 |
| 20260502071107 | 57 | 278 | 3.0 | 9.0 | 0.00 | 0.00 | 0.00 | 73 | 1015.3 |
| 20260502070607 | 57 | 262 | 3.0 | 9.0 | 0.00 | 0.00 | 0.00 | 73 | 1015.4 |
| 20260502070108 | 57 | 286 | 5.0 | 9.0 | 0.00 | 0.00 | 0.00 | 73 | 1015.3 |
| 20260502064608 | 57 | 279 | 4.0 | 9.0 | 0.00 | 0.00 | 0.00 | 73 | 1015.3 |
| 20260502064108 | 57 | 279 | 3.0 | 9.0 | 0.00 | 0.00 | 0.00 | 73 | 1015.3 |
| 20260502061607 | 56 | 275 | 2.0 | 10.0 | 0.00 | 0.00 | 0.00 | 76 | 1015.4 |
| 20260502061108 | 56 | 286 | 2.0 | 10.0 | 0.00 | 0.00 | 0.00 | 76 | 1015.5 |
| 20260502060607 | 56 | 271 | 3.0 | 10.0 | 0.00 | 0.00 | 0.00 | 76 | 1015.4 |
| 20260502060108 | 56 | 248 | 2.0 | 7.0 | 0.00 | 0.00 | 0.00 | 76 | 1015.4 |
| 20260502053607 | 54 | 285 | 3.0 | 9.0 | 0.00 | 0.00 | 0.00 | 79 | 1015.4 |
| 20260502053107 | 54 | 282 | 5.0 | 9.0 | 0.00 | 0.00 | 0.00 | 80 | 1015.4 |
| 20260502051607 | 53 | 286 | 2.0 | 12.0 | 0.00 | 0.00 | 0.00 | 81 | 1015.3 |
| 20260502051108 | 53 | 283 | 5.0 | 12.0 | 0.00 | 0.00 | 0.00 | 80 | 1015.3 |
| 20260502050608 | 53 | 276 | 3.0 | 12.0 | 0.00 | 0.00 | 0.00 | 81 | 1015.2 |
| 20260502050107 | 53 | 274 | 3.0 | 12.0 | 0.00 | 0.00 | 0.00 | 80 | 1015.2 |
| 20260502044608 | 54 | 283 | 4.0 | 8.0 | 0.00 | 0.00 | 0.00 | 80 | 1015.2 |
| 20260502044108 | 54 | 269 | 2.0 | 12.0 | 0.00 | 0.00 | 0.00 | 79 | 1015.2 |
| 20260502043607 | 54 | 280 | 5.0 | 12.0 | 0.00 | 0.00 | 0.00 | 79 | 1015.1 |
| 20260502043107 | 55 | 279 | 6.0 | 12.0 | 0.00 | 0.00 | 0.00 | 78 | 1015.2 |
| 20260502041607 | 55 | 281 | 2.0 | 7.0 | 0.00 | 0.00 | 0.00 | 78 | 1015.3 |
| 20260502041107 | 55 | 270 | 4.0 | 7.0 | 0.00 | 0.00 | 0.00 | 78 | 1015.3 |
| 20260502040607 | 55 | 302 | 2.0 | 6.0 | 0.00 | 0.00 | 0.00 | 79 | 1015.3 |
| 20260502040107 | 55 | 287 | 2.0 | 6.0 | 0.00 | 0.00 | 0.00 | 79 | 1015.3 |
| 20260502034607 | 55 | 288 | 3.0 | 8.0 | 0.00 | 0.00 | 0.00 | 79 | 1015.3 |
| 20260502034107 | 55 | 282 | 3.0 | 8.0 | 0.00 | 0.00 | 0.00 | 79 | 1015.4 |
| 20260502033607 | 55 | 278 | 3.0 | 7.0 | 0.00 | 0.00 | 0.00 | 79 | 1015.4 |
| 20260502033108 | 55 | 272 | 2.0 | 7.0 | 0.00 | 0.00 | 0.00 | 79 | 1015.4 |
| 20260502031608 | 56 | 275 | 4.0 | 8.0 | 0.00 | 0.00 | 0.00 | 78 | 1015.4 |
| 20260502031108 | 56 | 271 | 4.0 | 10.0 | 0.00 | 0.00 | 0.00 | 79 | 1015.4 |
| 20260502030608 | 56 | 276 | 5.0 | 10.0 | 0.00 | 0.00 | 0.00 | 79 | 1015.4 |
| 20260502024607 | 56 | 294 | 3.0 | 8.0 | 0.00 | 0.00 | 0.00 | 79 | 1015.5 |
| 20260502024107 | 56 | 264 | 3.0 | 7.0 | 0.00 | 0.00 | 0.00 | 80 | 1015.5 |
| 20260502023608 | 56 | 274 | 2.0 | 7.0 | 0.00 | 0.00 | 0.00 | 80 | 1015.5 |
| 20260502023107 | 56 | 285 | 3.0 | 7.0 | 0.00 | 0.00 | 0.00 | 80 | 1015.5 |
| 20260502021607 | 57 | 288 | 3.0 | 8.0 | 0.00 | 0.00 | 0.00 | 80 | 1015.6 |
| 20260502020608 | 57 | 267 | 4.0 | 10.0 | 0.00 | 0.00 | 0.00 | 80 | 1015.6 |
| 20260502020107 | 57 | 282 | 3.0 | 7.0 | 0.00 | 0.00 | 0.00 | 80 | 1015.6 |
| 20260502014608 | 57 | 303 | 1.0 | 3.0 | 0.00 | 0.00 | 0.00 | 79 | 1015.8 |
| 20260502013607 | 57 | 289 | 2.0 | 3.0 | 0.00 | 0.00 | 0.00 | 78 | 1015.8 |
| 20260502013107 | 57 | 286 | 2.0 | 3.0 | 0.00 | 0.00 | 0.00 | 78 | 1015.9 |
| 20260502011607 | 57 | 282 | 2.0 | 8.0 | 0.00 | 0.00 | 0.00 | 79 | 1015.9 |
| 20260502010607 | 57 | 278 | 3.0 | 8.0 | 0.00 | 0.00 | 0.00 | 79 | 1015.9 |
| 20260502010108 | 58 | 273 | 3.0 | 8.0 | 0.00 | 0.00 | 0.00 | 79 | 1015.9 |
| 20260502001607 | 58 | 260 | 2.0 | 6.0 | 0.00 | 0.00 | 0.00 | 77 | 1016.0 |
| 20260502001107 | 59 | 229 | 1.0 | 5.0 | 0.00 | 0.00 | 0.00 | 77 | 1016.1 |
| 20260502000108 | 59 | 213 | 2.0 | 7.0 | 0.00 | 0.00 | 0.00 | 76 | 1016.0 |
| 20260501234108 | 59 | 272 | 1.0 | 7.0 | 0.00 | 0.00 | 0.00 | 76 | 1016.0 |
| 20260501233608 | 59 | 222 | 2.0 | 7.0 | 0.00 | 0.00 | 0.00 | 76 | 1016.0 |
| 20260501233108 | 59 | 222 | 2.0 | 7.0 | 0.00 | 0.00 | 0.00 | 75 | 1016.1 |
| 20260501231107 | 60 | 285 | 2.0 | 3.0 | 0.00 | 0.00 | 0.00 | 74 | 1016.1 |
| 20260501230606 | 60 | 293 | 1.0 | 6.0 | 0.00 | 0.00 | 0.00 | 74 | 1016.1 |
| 20260501230107 | 60 | 251 | 2.0 | 6.0 | 0.00 | 0.00 | 0.00 | 74 | 1016.1 |
| 20260501224108 | 60 | 272 | 3.0 | 9.0 | 0.00 | 0.00 | 0.00 | 72 | 1016.0 |
| 20260501223607 | 60 | 283 | 2.0 | 5.0 | 0.00 | 0.00 | 0.00 | 72 | 1016.1 |
| 20260501221608 | 61 | 277 | 4.0 | 9.0 | 0.00 | 0.00 | 0.00 | 70 | 1016.2 |
| 20260501220607 | 61 | 290 | 4.0 | 8.0 | 0.00 | 0.00 | 0.00 | 69 | 1016.2 |
| 20260501214607 | 61 | 278 | 5.0 | 9.0 | 0.00 | 0.00 | 0.00 | 68 | 1016.1 |
| 20260501214108 | 61 | 275 | 4.0 | 9.0 | 0.00 | 0.00 | 0.00 | 67 | 1016.1 |
| 20260501213607 | 61 | 288 | 3.0 | 8.0 | 0.00 | 0.00 | 0.00 | 67 | 1016.0 |
| 20260501211608 | 60 | 283 | 2.0 | 8.0 | 0.00 | 0.00 | 0.00 | 72 | 1015.9 |
| 20260501211108 | 60 | 282 | 2.0 | 8.0 | 0.00 | 0.00 | 0.00 | 73 | 1015.9 |
| 20260501210607 | 59 | 286 | 3.0 | 8.0 | 0.00 | 0.00 | 0.00 | 74 | 1015.8 |
| 20260501210107 | 59 | 269 | 1.0 | 3.0 | 0.00 | 0.00 | 0.00 | 74 | 1015.9 |
| 20260501204607 | 59 | 307 | 1.0 | 3.0 | 0.00 | 0.00 | 0.00 | 75 | 1015.9 |
| 20260501203608 | 58 | 288 | 3.0 | 7.0 | 0.00 | 0.00 | 0.00 | 77 | 1016.1 |
| 20260501203107 | 58 | 276 | 0.0 | 3.0 | 0.00 | 0.00 | 0.00 | 77 | 1015.7 |
| 20260501201607 | 58 | 100 | 2.0 | 3.0 | 0.00 | 0.00 | 0.00 | 77 | 1015.7 |
| 20260501200108 | 59 | 112 | 2.0 | 3.0 | 0.00 | 0.00 | 0.00 | 75 | 1015.7 |
| 20260501194607 | 59 | 126 | 2.0 | 5.0 | 0.00 | 0.00 | 0.00 | 74 | 1015.7 |
| 20260501194107 | 59 | 139 | 2.0 | 6.0 | 0.00 | 0.00 | 0.00 | 73 | 1015.8 |
| 20260501193607 | 59 | 106 | 2.0 | 6.0 | 0.00 | 0.00 | 0.00 | 73 | 1015.7 |
| 20260501193107 | 59 | 117 | 1.0 | 6.0 | 0.00 | 0.00 | 0.00 | 72 | 1015.7 |
| 20260501191607 | 60 | 124 | 2.0 | 8.0 | 0.00 | 0.00 | 0.00 | 70 | 1015.7 |
| 20260501190607 | 60 | 109 | 4.0 | 7.0 | 0.00 | 0.00 | 0.00 | 70 | 1015.7 |
| 20260501190107 | 60 | 110 | 3.0 | 7.0 | 0.00 | 0.00 | 0.00 | 69 | 1015.7 |
| 20260501184607 | 61 | 128 | 2.0 | 8.0 | 0.00 | 0.00 | 0.00 | 69 | 1015.8 |
| 20260501184107 | 61 | 129 | 3.0 | 8.0 | 0.00 | 0.00 | 0.00 | 69 | 1015.8 |
| 20260501183608 | 61 | 118 | 3.0 | 10.0 | 0.00 | 0.00 | 0.00 | 68 | 1015.7 |
| 20260501183108 | 61 | 112 | 5.0 | 10.0 | 0.00 | 0.00 | 0.00 | 68 | 1015.8 |
| 20260501181607 | 61 | 103 | 4.0 | 13.0 | 0.00 | 0.00 | 0.00 | 68 | 1015.8 |
| 20260501181107 | 61 | 124 | 6.0 | 13.0 | 0.00 | 0.00 | 0.00 | 67 | 1015.8 |
| 20260501180606 | 61 | 130 | 7.0 | 13.0 | 0.00 | 0.00 | 0.00 | 66 | 1015.8 |
| 20260501174606 | 62 | 135 | 7.0 | 15.0 | 0.00 | 0.00 | 0.00 | 64 | 1015.8 |
| 20260501174107 | 62 | 132 | 7.0 | 15.0 | 0.00 | 0.00 | 0.00 | 63 | 1015.9 |
| 20260501173607 | 63 | 118 | 9.0 | 15.0 | 0.00 | 0.00 | 0.00 | 63 | 1015.9 |
| 20260501173107 | 63 | 108 | 8.0 | 15.0 | 0.00 | 0.00 | 0.00 | 62 | 1015.9 |
| 20260501171607 | 63 | 139 | 5.0 | 14.0 | 0.00 | 0.00 | 0.00 | 61 | 1016.0 |
| 20260501171108 | 64 | 129 | 7.0 | 15.0 | 0.00 | 0.00 | 0.00 | 60 | 1016.0 |
| 20260501170607 | 64 | 128 | 7.0 | 15.0 | 0.00 | 0.00 | 0.00 | 59 | 1016.0 |
| 20260501170107 | 64 | 124 | 6.0 | 14.0 | 0.00 | 0.00 | 0.00 | 58 | 1016.0 |
| 20260501164607 | 64 | 127 | 8.0 | 15.0 | 0.00 | 0.00 | 0.00 | 56 | 1016.1 |
| 20260501164107 | 64 | 130 | 7.0 | 16.0 | 0.00 | 0.00 | 0.00 | 55 | 1016.2 |
| 20260501163107 | 65 | 117 | 9.0 | 16.0 | 0.00 | 0.00 | 0.00 | 55 | 1016.2 |
| 20260501161607 | 65 | 129 | 9.0 | 15.0 | 0.00 | 0.00 | 0.00 | 52 | 1016.3 |
| 20260501161108 | 66 | 125 | 8.0 | 16.0 | 0.00 | 0.00 | 0.00 | 52 | 1016.3 |
| 20260501160607 | 65 | 124 | 7.0 | 17.0 | 0.00 | 0.00 | 0.00 | 53 | 1016.4 |
| 20260501160106 | 65 | 128 | 11.0 | 18.0 | 0.00 | 0.00 | 0.00 | 52 | 1016.4 |
| 20260501154608 | 66 | 113 | 8.0 | 18.0 | 0.00 | 0.00 | 0.00 | 51 | 1016.6 |
| 20260501154107 | 66 | 119 | 10.0 | 16.0 | 0.00 | 0.00 | 0.00 | 50 | 1016.7 |
| 20260501153607 | 66 | 130 | 10.0 | 20.0 | 0.00 | 0.00 | 0.00 | 49 | 1016.7 |
| 20260501153106 | 67 | 152 | 6.0 | 20.0 | 0.00 | 0.00 | 0.00 | 49 | 1016.7 |
| 20260501151606 | 67 | 135 | 9.0 | 17.0 | 0.00 | 0.00 | 0.00 | 49 | 1016.9 |
| 20260501150607 | 67 | 125 | 9.0 | 18.0 | 0.00 | 0.00 | 0.00 | 48 | 1016.9 |
| 20260501150107 | 67 | 134 | 9.0 | 18.0 | 0.00 | 0.00 | 0.00 | 50 | 1017.0 |